This is the latest recevied weather packets stored in our database for station/object HJ3GNC-11. If no packets are shown the sender has not sent any weather packets the latest 10 day(s).
| Time | Temp. | Humidity | Pressure | Rain* | Wind** | Luminosity | Snow |
|---|---|---|---|---|---|---|---|
| 1777684324 | 13.89° C | 77% | 1017 hPa | 0 mm | - | - | - |
| 1777683365 | 13.89° C | 80% | 1017 hPa | 0 mm | - | - | - |
| 1777682418 | 13.89° C | 78% | 1017 hPa | 0 mm | - | - | - |
| 1777681474 | 13.89° C | 71% | 1015 hPa | 0 mm | - | - | - |
| 1777680526 | 14.44° C | 73% | 1015 hPa | 0 mm | - | - | - |
| 1777679564 | 13.89° C | 76% | 1015 hPa | 0 mm | - | - | - |
| 1777678622 | 14.44° C | 73% | 1014 hPa | 0 mm | - | - | - |
| 1777676675 | 15.56° C | 65% | 1013 hPa | 0 mm | - | - | - |
| 1777675724 | 15° C | 70% | 1013 hPa | 0 mm | - | - | - |
| 1777674742 | 15.56° C | 70% | 1013 hPa | 0 mm | - | - | - |
| 1777673785 | 18.33° C | 65% | 1011 hPa | 0 mm | - | - | - |
| 1777672838 | 17.22° C | 65% | 1011 hPa | 0 mm | - | - | - |
| 1777671890 | 16.11° C | 65% | 1011 hPa | 0 mm | - | - | - |
| 1777670935 | 19.44° C | 62% | 1011 hPa | 0 mm | - | - | - |
| 1777669987 | 18.33° C | 62% | 1011 hPa | 0 mm | - | - | - |
| 1777669035 | 17.22° C | 62% | 1011 hPa | 0 mm | - | - | - |
| 1777668084 | 19.44° C | 61% | 1011 hPa | 0 mm | - | - | - |
| 1777667143 | 18.33° C | 61% | 1011 hPa | 0 mm | - | - | - |
| 1777666201 | 17.22° C | 61% | 1011 hPa | 0 mm | - | - | - |
| 1777665258 | 20.56° C | 63% | 1011 hPa | 0 mm | - | - | - |
| 1777664306 | 19.44° C | 63% | 1011 hPa | 0 mm | - | - | - |
| 1777663358 | 18.33° C | 63% | 1012 hPa | 0 mm | - | - | - |
| 1777661457 | 17.22° C | 63% | 1012 hPa | 0 mm | - | - | - |
| 1777660515 | 16.11° C | 63% | 1012 hPa | 0 mm | - | - | - |
| 1777659564 | 20.56° C | 64% | 1012 hPa | 0 mm | - | - | - |
* Rain latest hour (hover to see other rain measurements)
** Current wind speed in m/s (hover to see current wind gust speed)